Location: Saint+Peter+Port
(49.4500°N, 2.5330°W)
Time: 01:47:48
(UTC+00:00)

Envisat - Visible Passes

Search period start: 21 February 2024 00:00
Search period end: 02 March 2024 00:00
Orbit: 762 x 764 km, 98.3° (Epoch: 20 February)

Date Brightness Start Highest point End Pass type
(mag) Time Alt. Az. Time Alt. Az. Time Alt. Az.
21 Feb 5.6 02:42:47 10° NE 02:44:06 16° NE 02:44:06 16° NE visible
21 Feb 4.1 04:21:15 10° N 04:24:16 34° NNW 04:24:16 34° NNW visible
22 Feb 4.3 03:43:51 10° NNE 03:46:40 34° NNE 03:46:40 34° NNE visible
22 Feb 4.5 05:23:56 10° NNW 05:26:50 18° NW 05:26:50 18° NW visible
23 Feb 5.0 03:06:46 10° NNE 03:09:04 24° NE 03:09:04 24° NE visible
23 Feb 4.0 04:45:54 10° N 04:49:14 30° NW 04:49:14 30° NW visible
24 Feb 5.7 02:30:15 10° NE 02:31:29 14° NE 02:31:29 14° NE visible
24 Feb 3.8 04:08:17 10° N 04:11:39 41° N 04:11:39 41° N visible
24 Feb 4.8 05:49:22 10° NNW 05:51:24 12° NW 05:51:50 12° WNW visible
25 Feb 4.3 03:30:59 10° NNE 03:34:03 36° NE 03:34:03 36° NE visible
25 Feb 4.3 05:10:43 10° N 05:14:14 22° NW 05:14:14 22° NW visible
26 Feb 5.1 02:54:04 10° NNE 02:56:28 23° NE 02:56:28 23° NE visible
26 Feb 3.7 04:32:52 10° N 04:36:38 37° NW 04:36:38 37° NW visible
27 Feb 5.8 02:17:54 10° NE 02:18:52 13° ENE 02:18:52 13° ENE visible
27 Feb 3.6 03:55:22 10° NNE 03:59:02 48° N 03:59:02 48° N visible
27 Feb 4.6 05:35:50 10° NNW 05:38:41 15° NW 05:39:12 15° WNW visible
28 Feb 4.4 03:18:09 10° NNE 03:21:26 35° NE 03:21:26 35° NE visible
28 Feb 4.0 04:57:35 10° N 05:01:37 28° WNW 05:01:37 28° WNW visible
29 Feb 5.3 02:41:25 10° NE 02:43:51 20° ENE 02:43:51 20° ENE visible
29 Feb 3.4 04:19:52 10° N 04:24:01 48° NW 04:24:01 48° NW visible
29 Feb 5.0 06:02:34 10° NW 06:02:41 10° NW 06:02:49 10° NW visible
01 Mar 5.9 02:05:58 10° ENE 02:06:15 10° ENE 02:06:15 10° ENE visible
01 Mar 3.5 03:42:27 10° NNE 03:46:25 54° NNE 03:46:25 54° NNE visible
01 Mar 4.4 05:22:31 10° NNW 05:25:58 19° WNW 05:26:36 18° WNW visible
